owner,sensor,date,latitude,longitude,air_temperature,qcFlag 
COMPS,ioos:station:USF.COMPS:C12:1,2019-11-01T00:35:00,27.4980,-83.7220,27.74,11111222 
COMPS,ioos:station:USF.COMPS:C12:1,2019-11-01T01:35:00,27.4980,-83.7220,27.72,11111222 
COMPS,ioos:station:USF.COMPS:C12:1,2019-11-01T02:35:00,27.4980,-83.7220,27.66,11111222 
COMPS,ioos:station:USF.COMPS:C12:1,2019-11-01T03:35:00,27.4980,-83.7220,27.62,11111222 
COMPS,ioos:station:USF.COMPS:C12:1,2019-11-01T04:35:00,27.4980,-83.7220,26.75,11111222 
COMPS,ioos:station:USF.COMPS:C12:1,2019-11-01T05:35:00,27.4980,-83.7220,25.97,11111222 
COMPS,ioos:station:USF.COMPS:C12:1,2019-11-01T06:35:00,27.4980,-83.7220,25.54,11111222 
COMPS,ioos:station:USF.COMPS:C12:1,2019-11-01T07:35:00,27.4980,-83.7220,23.1,11111222 
COMPS,ioos:station:USF.COMPS:C12:1,2019-11-01T08:35:00,27.4980,-83.7220,23.16,11111222 
COMPS,ioos:station:USF.COMPS:C12:1,2019-11-01T09:35:00,27.4980,-83.7220,23.23,11111222 
COMPS,ioos:station:USF.COMPS:C12:1,2019-11-01T10:35:00,27.4980,-83.7220,22.77,11111222 
COMPS,ioos:station:USF.COMPS:C12:1,2019-11-01T11:35:00,27.4980,-83.7220,22.74,11111222 
COMPS,ioos:station:USF.COMPS:C12:1,2019-11-01T12:35:00,27.4980,-83.7220,23.05,11111222 
COMPS,ioos:station:USF.COMPS:C12:1,2019-11-01T13:35:00,27.4980,-83.7220,23.03,11111222 
COMPS,ioos:station:USF.COMPS:C12:1,2019-11-01T14:35:00,27.4980,-83.7220,22.85,11111222 
COMPS,ioos:station:USF.COMPS:C12:1,2019-11-01T15:35:00,27.4980,-83.7220,22.87,11111222 
COMPS,ioos:station:USF.COMPS:C12:1,2019-11-01T16:35:00,27.4980,-83.7220,22.99,11111222 
COMPS,ioos:station:USF.COMPS:C12:1,2019-11-01T17:35:00,27.4980,-83.7220,22.81,11111222 
COMPS,ioos:station:USF.COMPS:C12:1,2019-11-01T18:35:00,27.4980,-83.7220,22.78,11111222 
COMPS,ioos:station:USF.COMPS:C12:1,2019-11-01T19:35:00,27.4980,-83.7220,22.59,11111222 
COMPS,ioos:station:USF.COMPS:C12:1,2019-11-01T20:35:00,27.4980,-83.7220,22.39,11111222 
COMPS,ioos:station:USF.COMPS:C12:1,2019-11-01T21:35:00,27.4980,-83.7220,22.14,11111222 
COMPS,ioos:station:USF.COMPS:C12:1,2019-11-01T22:35:00,27.4980,-83.7220,21.95,11111222 
COMPS,ioos:station:USF.COMPS:C12:1,2019-11-01T23:35:00,27.4980,-83.7220,21.95,11111222 
COMPS,ioos:station:USF.COMPS:C12:1,2019-11-02T01:35:00,27.4980,-83.7220,22.16,11111222 
COMPS,ioos:station:USF.COMPS:C12:1,2019-11-02T02:35:00,27.4980,-83.7220,22.39,11111222 
COMPS,ioos:station:USF.COMPS:C12:1,2019-11-02T03:35:00,27.4980,-83.7220,22.83,11111222 
COMPS,ioos:station:USF.COMPS:C12:1,2019-11-02T04:35:00,27.4980,-83.7220,23.51,11111222 
COMPS,ioos:station:USF.COMPS:C12:1,2019-11-02T05:35:00,27.4980,-83.7220,24.16,11111222 
COMPS,ioos:station:USF.COMPS:C12:1,2019-11-02T06:35:00,27.4980,-83.7220,24.31,11111222 
COMPS,ioos:station:USF.COMPS:C12:1,2019-11-02T07:35:00,27.4980,-83.7220,24.4,11111222 
COMPS,ioos:station:USF.COMPS:C12:1,2019-11-02T08:35:00,27.4980,-83.7220,24.44,11111222 
COMPS,ioos:station:USF.COMPS:C12:1,2019-11-02T09:35:00,27.4980,-83.7220,24.56,11111222 
COMPS,ioos:station:USF.COMPS:C12:1,2019-11-02T10:35:00,27.4980,-83.7220,24.72,11111222 
COMPS,ioos:station:USF.COMPS:C12:1,2019-11-02T11:35:00,27.4980,-83.7220,24.88,11111222 
COMPS,ioos:station:USF.COMPS:C12:1,2019-11-02T12:35:00,27.4980,-83.7220,25.26,11111222 
COMPS,ioos:station:USF.COMPS:C12:1,2019-11-02T13:35:00,27.4980,-83.7220,25.6,11111222 
COMPS,ioos:station:USF.COMPS:C12:1,2019-11-02T14:35:00,27.4980,-83.7220,26.26,11111222 
COMPS,ioos:station:USF.COMPS:C12:1,2019-11-02T15:35:00,27.4980,-83.7220,25.92,11111222 
COMPS,ioos:station:USF.COMPS:C12:1,2019-11-02T16:35:00,27.4980,-83.7220,25.43,11111222 
COMPS,ioos:station:USF.COMPS:C12:1,2019-11-02T17:35:00,27.4980,-83.7220,23.85,11111222 
COMPS,ioos:station:USF.COMPS:C12:1,2019-11-02T18:35:00,27.4980,-83.7220,23.23,11111222 
COMPS,ioos:station:USF.COMPS:C12:1,2019-11-02T19:35:00,27.4980,-83.7220,22.96,11111222 
COMPS,ioos:station:USF.COMPS:C12:1,2019-11-02T20:35:00,27.4980,-83.7220,23.13,11111222 
COMPS,ioos:station:USF.COMPS:C12:1,2019-11-02T21:35:00,27.4980,-83.7220,23.05,11111222 
COMPS,ioos:station:USF.COMPS:C12:1,2019-11-02T22:35:00,27.4980,-83.7220,23.03,11111222 
COMPS,ioos:station:USF.COMPS:C12:1,2019-11-02T23:35:00,27.4980,-83.7220,22.8,11111222 
COMPS,ioos:station:USF.COMPS:C12:1,2019-11-03T00:35:00,27.4980,-83.7220,22.83,11111222 
COMPS,ioos:station:USF.COMPS:C12:1,2019-11-03T01:35:00,27.4980,-83.7220,22.84,11111222 
COMPS,ioos:station:USF.COMPS:C12:1,2019-11-03T02:35:00,27.4980,-83.7220,22.5,11111222 
COMPS,ioos:station:USF.COMPS:C12:1,2019-11-03T03:35:00,27.4980,-83.7220,22.5,11111222 
COMPS,ioos:station:USF.COMPS:C12:1,2019-11-03T04:35:00,27.4980,-83.7220,22.76,11111222 
COMPS,ioos:station:USF.COMPS:C12:1,2019-11-03T05:35:00,27.4980,-83.7220,22.82,11111222 
COMPS,ioos:station:USF.COMPS:C12:1,2019-11-03T06:35:00,27.4980,-83.7220,22.9,11111222 
COMPS,ioos:station:USF.COMPS:C12:1,2019-11-03T07:35:00,27.4980,-83.7220,22.8,11111222 
COMPS,ioos:station:USF.COMPS:C12:1,2019-11-03T08:35:00,27.4980,-83.7220,22.39,11111222 
COMPS,ioos:station:USF.COMPS:C12:1,2019-11-03T09:35:00,27.4980,-83.7220,22.06,11111222 
COMPS,ioos:station:USF.COMPS:C12:1,2019-11-03T10:35:00,27.4980,-83.7220,22.07,11111222 
COMPS,ioos:station:USF.COMPS:C12:1,2019-11-03T11:35:00,27.4980,-83.7220,22.24,11111222 
COMPS,ioos:station:USF.COMPS:C12:1,2019-11-03T12:35:00,27.4980,-83.7220,21.81,11111222 
COMPS,ioos:station:USF.COMPS:C12:1,2019-11-03T13:35:00,27.4980,-83.7220,22.06,11111222 
COMPS,ioos:station:USF.COMPS:C12:1,2019-11-03T14:35:00,27.4980,-83.7220,22.22,11111222 
COMPS,ioos:station:USF.COMPS:C12:1,2019-11-03T15:35:00,27.4980,-83.7220,22.14,11111222 
COMPS,ioos:station:USF.COMPS:C12:1,2019-11-03T16:35:00,27.4980,-83.7220,22.09,11111222 
COMPS,ioos:station:USF.COMPS:C12:1,2019-11-03T17:35:00,27.4980,-83.7220,21.97,11111222 
COMPS,ioos:station:USF.COMPS:C12:1,2019-11-03T18:35:00,27.4980,-83.7220,22.27,11111222 
COMPS,ioos:station:USF.COMPS:C12:1,2019-11-03T19:35:00,27.4980,-83.7220,22.56,11111222 
COMPS,ioos:station:USF.COMPS:C12:1,2019-11-03T20:35:00,27.4980,-83.7220,22.88,11111222 
COMPS,ioos:station:USF.COMPS:C12:1,2019-11-03T21:35:00,27.4980,-83.7220,23.45,11111222 
COMPS,ioos:station:USF.COMPS:C12:1,2019-11-03T22:35:00,27.4980,-83.7220,24.03,11111222 
COMPS,ioos:station:USF.COMPS:C12:1,2019-11-03T23:35:00,27.4980,-83.7220,24.78,11111222 
COMPS,ioos:station:USF.COMPS:C12:1,2019-11-04T01:35:00,27.4980,-83.7220,25.34,11111222 
COMPS,ioos:station:USF.COMPS:C12:1,2019-11-04T02:35:00,27.4980,-83.7220,25.52,11111222 
COMPS,ioos:station:USF.COMPS:C12:1,2019-11-04T03:35:00,27.4980,-83.7220,25.51,11111222 
COMPS,ioos:station:USF.COMPS:C12:1,2019-11-04T04:35:00,27.4980,-83.7220,25.12,11111222 
COMPS,ioos:station:USF.COMPS:C12:1,2019-11-04T05:35:00,27.4980,-83.7220,24.95,11111222 
COMPS,ioos:station:USF.COMPS:C12:1,2019-11-04T15:35:00,27.4980,-83.7220,25.96,11111222 
COMPS,ioos:station:USF.COMPS:C12:1,2019-11-04T16:35:00,27.4980,-83.7220,26.07,11111222 
COMPS,ioos:station:USF.COMPS:C12:1,2019-11-04T17:35:00,27.4980,-83.7220,25.96,11111222 
COMPS,ioos:station:USF.COMPS:C12:1,2019-11-04T18:35:00,27.4980,-83.7220,26.17,11111222 
COMPS,ioos:station:USF.COMPS:C12:1,2019-11-04T19:35:00,27.4980,-83.7220,26.5,11111222 
COMPS,ioos:station:USF.COMPS:C12:1,2019-11-04T20:35:00,27.4980,-83.7220,26.54,11111222 
COMPS,ioos:station:USF.COMPS:C12:1,2019-11-04T21:35:00,27.4980,-83.7220,26.69,11111222 
COMPS,ioos:station:USF.COMPS:C12:1,2019-11-04T22:35:00,27.4980,-83.7220,26.74,11111222 
COMPS,ioos:station:USF.COMPS:C12:1,2019-11-04T23:35:00,27.4980,-83.7220,26.79,11111222 
COMPS,ioos:station:USF.COMPS:C12:1,2019-11-05T00:35:00,27.4980,-83.7220,27.0,11111222 
COMPS,ioos:station:USF.COMPS:C12:1,2019-11-05T01:35:00,27.4980,-83.7220,26.86,11111222 
COMPS,ioos:station:USF.COMPS:C12:1,2019-11-05T02:35:00,27.4980,-83.7220,26.81,11111222 
COMPS,ioos:station:USF.COMPS:C12:1,2019-11-05T03:35:00,27.4980,-83.7220,26.58,11111222 
COMPS,ioos:station:USF.COMPS:C12:1,2019-11-05T04:35:00,27.4980,-83.7220,26.54,11111222 
COMPS,ioos:station:USF.COMPS:C12:1,2019-11-05T05:35:00,27.4980,-83.7220,26.55,11111222 
COMPS,ioos:station:USF.COMPS:C12:1,2019-11-05T06:35:00,27.4980,-83.7220,26.44,11111222 
COMPS,ioos:station:USF.COMPS:C12:1,2019-11-05T07:35:00,27.4980,-83.7220,26.57,11111222 
COMPS,ioos:station:USF.COMPS:C12:1,2019-11-05T08:35:00,27.4980,-83.7220,26.78,11111222 
COMPS,ioos:station:USF.COMPS:C12:1,2019-11-05T09:35:00,27.4980,-83.7220,26.87,11111222 
COMPS,ioos:station:USF.COMPS:C12:1,2019-11-05T10:35:00,27.4980,-83.7220,27.09,11111222 
COMPS,ioos:station:USF.COMPS:C12:1,2019-11-05T11:35:00,27.4980,-83.7220,27.13,11111222 
COMPS,ioos:station:USF.COMPS:C12:1,2019-11-05T12:35:00,27.4980,-83.7220,27.15,11111222 
COMPS,ioos:station:USF.COMPS:C12:1,2019-11-05T13:35:00,27.4980,-83.7220,27.63,11111222 
COMPS,ioos:station:USF.COMPS:C12:1,2019-11-05T14:35:00,27.4980,-83.7220,27.36,11111222 
COMPS,ioos:station:USF.COMPS:C12:1,2019-11-05T15:35:00,27.4980,-83.7220,27.11,11111222 
COMPS,ioos:station:USF.COMPS:C12:1,2019-11-05T16:35:00,27.4980,-83.7220,26.3,11111222 
COMPS,ioos:station:USF.COMPS:C12:1,2019-11-05T17:35:00,27.4980,-83.7220,25.83,11111222 
COMPS,ioos:station:USF.COMPS:C12:1,2019-11-05T18:35:00,27.4980,-83.7220,26.43,11111222 
COMPS,ioos:station:USF.COMPS:C12:1,2019-11-05T19:35:00,27.4980,-83.7220,26.66,11111222 
COMPS,ioos:station:USF.COMPS:C12:1,2019-11-05T20:35:00,27.4980,-83.7220,27.23,11111222 
COMPS,ioos:station:USF.COMPS:C12:1,2019-11-05T21:35:00,27.4980,-83.7220,27.15,11111222 
COMPS,ioos:station:USF.COMPS:C12:1,2019-11-05T22:35:00,27.4980,-83.7220,27.02,11111222 
COMPS,ioos:station:USF.COMPS:C12:1,2019-11-05T23:35:00,27.4980,-83.7220,27.12,11111222 
COMPS,ioos:station:USF.COMPS:C12:1,2019-11-06T00:35:00,27.4980,-83.7220,26.31,11111222 
COMPS,ioos:station:USF.COMPS:C12:1,2019-11-06T01:35:00,27.4980,-83.7220,26.81,11111222 
COMPS,ioos:station:USF.COMPS:C12:1,2019-11-06T02:35:00,27.4980,-83.7220,26.5,11111222 
COMPS,ioos:station:USF.COMPS:C12:1,2019-11-06T03:35:00,27.4980,-83.7220,26.4,11111222 
COMPS,ioos:station:USF.COMPS:C12:1,2019-11-06T04:35:00,27.4980,-83.7220,26.59,11111222 
COMPS,ioos:station:USF.COMPS:C12:1,2019-11-06T05:35:00,27.4980,-83.7220,26.43,11111222 
COMPS,ioos:station:USF.COMPS:C12:1,2019-11-06T06:35:00,27.4980,-83.7220,26.51,11111222 
COMPS,ioos:station:USF.COMPS:C12:1,2019-11-06T07:35:00,27.4980,-83.7220,26.38,11111222 
COMPS,ioos:station:USF.COMPS:C12:1,2019-11-06T08:35:00,27.4980,-83.7220,26.36,11111222 
COMPS,ioos:station:USF.COMPS:C12:1,2019-11-06T09:35:00,27.4980,-83.7220,26.74,11111222 
COMPS,ioos:station:USF.COMPS:C12:1,2019-11-06T10:35:00,27.4980,-83.7220,26.55,11111222 
COMPS,ioos:station:USF.COMPS:C12:1,2019-11-06T11:35:00,27.4980,-83.7220,26.26,11111222 
COMPS,ioos:station:USF.COMPS:C12:1,2019-11-06T12:35:00,27.4980,-83.7220,26.34,11111222 
COMPS,ioos:station:USF.COMPS:C12:1,2019-11-06T13:35:00,27.4980,-83.7220,26.39,11111222 
COMPS,ioos:station:USF.COMPS:C12:1,2019-11-06T14:35:00,27.4980,-83.7220,26.45,11111222 
COMPS,ioos:station:USF.COMPS:C12:1,2019-11-06T15:35:00,27.4980,-83.7220,26.19,11111222 
COMPS,ioos:station:USF.COMPS:C12:1,2019-11-06T16:35:00,27.4980,-83.7220,25.93,11111222 
COMPS,ioos:station:USF.COMPS:C12:1,2019-11-06T17:35:00,27.4980,-83.7220,25.4,11111222 
COMPS,ioos:station:USF.COMPS:C12:1,2019-11-06T18:35:00,27.4980,-83.7220,25.25,11111222 
COMPS,ioos:station:USF.COMPS:C12:1,2019-11-06T19:35:00,27.4980,-83.7220,25.31,11111222 
COMPS,ioos:station:USF.COMPS:C12:1,2019-11-06T20:35:00,27.4980,-83.7220,25.69,11111222 
COMPS,ioos:station:USF.COMPS:C12:1,2019-11-06T21:35:00,27.4980,-83.7220,25.92,11111222 
COMPS,ioos:station:USF.COMPS:C12:1,2019-11-06T22:35:00,27.4980,-83.7220,25.86,11111222 
COMPS,ioos:station:USF.COMPS:C12:1,2019-11-06T23:35:00,27.4980,-83.7220,25.96,11111222 
COMPS,ioos:station:USF.COMPS:C12:1,2019-11-07T00:35:00,27.4980,-83.7220,26.53,11111222 
COMPS,ioos:station:USF.COMPS:C12:1,2019-11-07T01:35:00,27.4980,-83.7220,26.21,11111222 
COMPS,ioos:station:USF.COMPS:C12:1,2019-11-07T02:35:00,27.4980,-83.7220,26.32,11111222 
COMPS,ioos:station:USF.COMPS:C12:1,2019-11-07T03:35:00,27.4980,-83.7220,26.36,11111222 
COMPS,ioos:station:USF.COMPS:C12:1,2019-11-07T04:35:00,27.4980,-83.7220,26.12,11111222 
COMPS,ioos:station:USF.COMPS:C12:1,2019-11-07T05:35:00,27.4980,-83.7220,26.13,11111222 
COMPS,ioos:station:USF.COMPS:C12:1,2019-11-07T06:35:00,27.4980,-83.7220,26.07,11111222 
COMPS,ioos:station:USF.COMPS:C12:1,2019-11-07T07:35:00,27.4980,-83.7220,25.92,11111222 
COMPS,ioos:station:USF.COMPS:C12:1,2019-11-07T08:35:00,27.4980,-83.7220,25.94,11111222 
COMPS,ioos:station:USF.COMPS:C12:1,2019-11-07T09:35:00,27.4980,-83.7220,25.78,11111222 
COMPS,ioos:station:USF.COMPS:C12:1,2019-11-07T10:35:00,27.4980,-83.7220,25.72,11111222 
COMPS,ioos:station:USF.COMPS:C12:1,2019-11-07T11:35:00,27.4980,-83.7220,25.74,11111222 
COMPS,ioos:station:USF.COMPS:C12:1,2019-11-07T12:35:00,27.4980,-83.7220,25.88,11111222 
COMPS,ioos:station:USF.COMPS:C12:1,2019-11-07T13:35:00,27.4980,-83.7220,26.15,11111222 
COMPS,ioos:station:USF.COMPS:C12:1,2019-11-07T14:35:00,27.4980,-83.7220,26.03,11111222 
COMPS,ioos:station:USF.COMPS:C12:1,2019-11-07T15:35:00,27.4980,-83.7220,26.05,11111222 
COMPS,ioos:station:USF.COMPS:C12:1,2019-11-07T16:35:00,27.4980,-83.7220,25.9,11111222 
COMPS,ioos:station:USF.COMPS:C12:1,2019-11-07T17:35:00,27.4980,-83.7220,25.9,11111222 
COMPS,ioos:station:USF.COMPS:C12:1,2019-11-07T18:35:00,27.4980,-83.7220,25.95,11111222 
COMPS,ioos:station:USF.COMPS:C12:1,2019-11-07T19:35:00,27.4980,-83.7220,26.45,11111222 
COMPS,ioos:station:USF.COMPS:C12:1,2019-11-07T20:35:00,27.4980,-83.7220,26.55,11111222 
COMPS,ioos:station:USF.COMPS:C12:1,2019-11-07T21:35:00,27.4980,-83.7220,26.42,11111222 
COMPS,ioos:station:USF.COMPS:C12:1,2019-11-07T22:35:00,27.4980,-83.7220,26.34,11111222 
COMPS,ioos:station:USF.COMPS:C12:1,2019-11-07T23:35:00,27.4980,-83.7220,26.05,11111222 
COMPS,ioos:station:USF.COMPS:C12:1,2019-11-08T00:35:00,27.4980,-83.7220,26.0,11111222 
COMPS,ioos:station:USF.COMPS:C12:1,2019-11-08T01:35:00,27.4980,-83.7220,26.02,11111222 
COMPS,ioos:station:USF.COMPS:C12:1,2019-11-08T02:35:00,27.4980,-83.7220,26.11,11111222 
COMPS,ioos:station:USF.COMPS:C12:1,2019-11-08T03:35:00,27.4980,-83.7220,26.22,11111222 
COMPS,ioos:station:USF.COMPS:C12:1,2019-11-08T04:35:00,27.4980,-83.7220,26.21,11111222 
COMPS,ioos:station:USF.COMPS:C12:1,2019-11-08T05:35:00,27.4980,-83.7220,26.19,11111222 
COMPS,ioos:station:USF.COMPS:C12:1,2019-11-08T06:35:00,27.4980,-83.7220,26.15,11111222 
COMPS,ioos:station:USF.COMPS:C12:1,2019-11-08T07:35:00,27.4980,-83.7220,26.18,11111222 
COMPS,ioos:station:USF.COMPS:C12:1,2019-11-08T08:35:00,27.4980,-83.7220,26.0,11111222 
COMPS,ioos:station:USF.COMPS:C12:1,2019-11-08T09:35:00,27.4980,-83.7220,25.86,11111222 
COMPS,ioos:station:USF.COMPS:C12:1,2019-11-08T10:35:00,27.4980,-83.7220,26.0,11111222 
COMPS,ioos:station:USF.COMPS:C12:1,2019-11-08T11:35:00,27.4980,-83.7220,25.75,11111222 
COMPS,ioos:station:USF.COMPS:C12:1,2019-11-08T12:35:00,27.4980,-83.7220,26.05,11111222 
COMPS,ioos:station:USF.COMPS:C12:1,2019-11-08T13:35:00,27.4980,-83.7220,26.12,11111222 
COMPS,ioos:station:USF.COMPS:C12:1,2019-11-08T14:35:00,27.4980,-83.7220,26.15,11111222 
COMPS,ioos:station:USF.COMPS:C12:1,2019-11-08T15:35:00,27.4980,-83.7220,26.12,11111222 
COMPS,ioos:station:USF.COMPS:C12:1,2019-11-08T16:35:00,27.4980,-83.7220,26.11,11111222 
COMPS,ioos:station:USF.COMPS:C12:1,2019-11-08T17:35:00,27.4980,-83.7220,26.0,11111222 
COMPS,ioos:station:USF.COMPS:C12:1,2019-11-08T18:35:00,27.4980,-83.7220,26.06,11111222 
COMPS,ioos:station:USF.COMPS:C12:1,2019-11-08T19:35:00,27.4980,-83.7220,26.08,11111222 
COMPS,ioos:station:USF.COMPS:C12:1,2019-11-08T20:35:00,27.4980,-83.7220,25.47,11111222 
COMPS,ioos:station:USF.COMPS:C12:1,2019-11-08T21:35:00,27.4980,-83.7220,25.45,11111222 
COMPS,ioos:station:USF.COMPS:C12:1,2019-11-08T22:35:00,27.4980,-83.7220,25.24,11111222 
COMPS,ioos:station:USF.COMPS:C12:1,2019-11-08T23:35:00,27.4980,-83.7220,24.87,11111222 
COMPS,ioos:station:USF.COMPS:C12:1,2019-11-09T01:35:00,27.4980,-83.7220,24.57,11111222 
COMPS,ioos:station:USF.COMPS:C12:1,2019-11-09T02:35:00,27.4980,-83.7220,24.07,11111222 
COMPS,ioos:station:USF.COMPS:C12:1,2019-11-09T03:35:00,27.4980,-83.7220,23.63,11111222 
COMPS,ioos:station:USF.COMPS:C12:1,2019-11-09T04:35:00,27.4980,-83.7220,23.31,11111222 
COMPS,ioos:station:USF.COMPS:C12:1,2019-11-09T05:35:00,27.4980,-83.7220,23.25,11111222 
COMPS,ioos:station:USF.COMPS:C12:1,2019-11-09T06:35:00,27.4980,-83.7220,22.49,11111222 
COMPS,ioos:station:USF.COMPS:C12:1,2019-11-09T07:35:00,27.4980,-83.7220,22.24,11111222 
COMPS,ioos:station:USF.COMPS:C12:1,2019-11-09T08:35:00,27.4980,-83.7220,21.86,11111222 
COMPS,ioos:station:USF.COMPS:C12:1,2019-11-09T09:35:00,27.4980,-83.7220,21.91,11111222 
COMPS,ioos:station:USF.COMPS:C12:1,2019-11-09T10:35:00,27.4980,-83.7220,21.97,11111222 
COMPS,ioos:station:USF.COMPS:C12:1,2019-11-09T11:35:00,27.4980,-83.7220,22.43,11111222 
COMPS,ioos:station:USF.COMPS:C12:1,2019-11-09T12:35:00,27.4980,-83.7220,22.38,11111222 
COMPS,ioos:station:USF.COMPS:C12:1,2019-11-09T13:35:00,27.4980,-83.7220,22.18,11111222 
COMPS,ioos:station:USF.COMPS:C12:1,2019-11-09T14:35:00,27.4980,-83.7220,22.08,11111222 
COMPS,ioos:station:USF.COMPS:C12:1,2019-11-09T15:35:00,27.4980,-83.7220,22.01,11111222 
COMPS,ioos:station:USF.COMPS:C12:1,2019-11-09T16:35:00,27.4980,-83.7220,21.82,11111222 
COMPS,ioos:station:USF.COMPS:C12:1,2019-11-09T17:35:00,27.4980,-83.7220,21.16,11111222 
COMPS,ioos:station:USF.COMPS:C12:1,2019-11-09T18:35:00,27.4980,-83.7220,20.98,11111222 
COMPS,ioos:station:USF.COMPS:C12:1,2019-11-09T19:35:00,27.4980,-83.7220,21.34,11111222 
COMPS,ioos:station:USF.COMPS:C12:1,2019-11-09T20:35:00,27.4980,-83.7220,21.68,11111222 
COMPS,ioos:station:USF.COMPS:C12:1,2019-11-09T21:35:00,27.4980,-83.7220,21.95,11111222 
COMPS,ioos:station:USF.COMPS:C12:1,2019-11-09T22:35:00,27.4980,-83.7220,22.2,11111222 
COMPS,ioos:station:USF.COMPS:C12:1,2019-11-09T23:35:00,27.4980,-83.7220,22.34,11111222 
COMPS,ioos:station:USF.COMPS:C12:1,2019-11-10T00:35:00,27.4980,-83.7220,23.03,11111222 
COMPS,ioos:station:USF.COMPS:C12:1,2019-11-10T01:35:00,27.4980,-83.7220,23.29,11111222 
COMPS,ioos:station:USF.COMPS:C12:1,2019-11-10T02:35:00,27.4980,-83.7220,23.41,11111222 
COMPS,ioos:station:USF.COMPS:C12:1,2019-11-10T03:35:00,27.4980,-83.7220,22.74,11111222 
COMPS,ioos:station:USF.COMPS:C12:1,2019-11-10T04:35:00,27.4980,-83.7220,22.21,11111222 
COMPS,ioos:station:USF.COMPS:C12:1,2019-11-10T05:35:00,27.4980,-83.7220,21.94,11111222 
COMPS,ioos:station:USF.COMPS:C12:1,2019-11-10T06:35:00,27.4980,-83.7220,21.61,11111222 
COMPS,ioos:station:USF.COMPS:C12:1,2019-11-10T07:35:00,27.4980,-83.7220,21.6,11111222 
COMPS,ioos:station:USF.COMPS:C12:1,2019-11-10T08:35:00,27.4980,-83.7220,21.64,11111222 
COMPS,ioos:station:USF.COMPS:C12:1,2019-11-10T09:35:00,27.4980,-83.7220,21.6,11111222 
COMPS,ioos:station:USF.COMPS:C12:1,2019-11-10T10:35:00,27.4980,-83.7220,21.45,11111222 
COMPS,ioos:station:USF.COMPS:C12:1,2019-11-10T11:35:00,27.4980,-83.7220,21.27,11111222 
COMPS,ioos:station:USF.COMPS:C12:1,2019-11-10T12:35:00,27.4980,-83.7220,21.33,11111222 
COMPS,ioos:station:USF.COMPS:C12:1,2019-11-10T13:35:00,27.4980,-83.7220,21.64,11111222 
COMPS,ioos:station:USF.COMPS:C12:1,2019-11-10T14:35:00,27.4980,-83.7220,21.73,11111222 
COMPS,ioos:station:USF.COMPS:C12:1,2019-11-10T15:35:00,27.4980,-83.7220,21.81,11111222 
COMPS,ioos:station:USF.COMPS:C12:1,2019-11-10T16:35:00,27.4980,-83.7220,22.02,11111222 
COMPS,ioos:station:USF.COMPS:C12:1,2019-11-10T17:35:00,27.4980,-83.7220,22.09,11111222 
COMPS,ioos:station:USF.COMPS:C12:1,2019-11-10T18:35:00,27.4980,-83.7220,22.16,11111222 
COMPS,ioos:station:USF.COMPS:C12:1,2019-11-10T19:35:00,27.4980,-83.7220,22.14,11111222 
COMPS,ioos:station:USF.COMPS:C12:1,2019-11-10T20:35:00,27.4980,-83.7220,22.73,11111222 
COMPS,ioos:station:USF.COMPS:C12:1,2019-11-10T21:35:00,27.4980,-83.7220,23.21,11111222 
COMPS,ioos:station:USF.COMPS:C12:1,2019-11-10T22:35:00,27.4980,-83.7220,23.41,11111222 
COMPS,ioos:station:USF.COMPS:C12:1,2019-11-10T23:35:00,27.4980,-83.7220,24.25,11111222 
COMPS,ioos:station:USF.COMPS:C12:1,2019-11-11T00:35:00,27.4980,-83.7220,24.4,11111222 
COMPS,ioos:station:USF.COMPS:C12:1,2019-11-11T01:35:00,27.4980,-83.7220,24.49,11111222 
COMPS,ioos:station:USF.COMPS:C12:1,2019-11-11T02:35:00,27.4980,-83.7220,24.51,11111222 
COMPS,ioos:station:USF.COMPS:C12:1,2019-11-11T03:35:00,27.4980,-83.7220,24.49,11111222 
COMPS,ioos:station:USF.COMPS:C12:1,2019-11-11T04:35:00,27.4980,-83.7220,24.61,11111222 
COMPS,ioos:station:USF.COMPS:C12:1,2019-11-11T05:35:00,27.4980,-83.7220,24.4,11111222 
COMPS,ioos:station:USF.COMPS:C12:1,2019-11-11T06:35:00,27.4980,-83.7220,24.41,11111222 
COMPS,ioos:station:USF.COMPS:C12:1,2019-11-11T07:35:00,27.4980,-83.7220,24.15,11111222 
COMPS,ioos:station:USF.COMPS:C12:1,2019-11-11T08:35:00,27.4980,-83.7220,24.09,11111222 
COMPS,ioos:station:USF.COMPS:C12:1,2019-11-11T09:35:00,27.4980,-83.7220,23.85,11111222 
COMPS,ioos:station:USF.COMPS:C12:1,2019-11-11T10:35:00,27.4980,-83.7220,23.86,11111222 
COMPS,ioos:station:USF.COMPS:C12:1,2019-11-11T11:35:00,27.4980,-83.7220,23.86,11111222 
COMPS,ioos:station:USF.COMPS:C12:1,2019-11-11T12:35:00,27.4980,-83.7220,24.0,11111222 
COMPS,ioos:station:USF.COMPS:C12:1,2019-11-11T13:35:00,27.4980,-83.7220,24.18,11111222 
COMPS,ioos:station:USF.COMPS:C12:1,2019-11-11T14:35:00,27.4980,-83.7220,24.28,11111222 
COMPS,ioos:station:USF.COMPS:C12:1,2019-11-11T15:35:00,27.4980,-83.7220,24.34,11111222 
COMPS,ioos:station:USF.COMPS:C12:1,2019-11-11T16:35:00,27.4980,-83.7220,24.28,11111222 
COMPS,ioos:station:USF.COMPS:C12:1,2019-11-11T17:35:00,27.4980,-83.7220,24.27,11111222 
COMPS,ioos:station:USF.COMPS:C12:1,2019-11-11T18:35:00,27.4980,-83.7220,24.26,11111222 
COMPS,ioos:station:USF.COMPS:C12:1,2019-11-11T19:35:00,27.4980,-83.7220,24.43,11111222 
COMPS,ioos:station:USF.COMPS:C12:1,2019-11-11T20:35:00,27.4980,-83.7220,24.3,11111222 
COMPS,ioos:station:USF.COMPS:C12:1,2019-11-11T21:35:00,27.4980,-83.7220,24.59,11111222 
COMPS,ioos:station:USF.COMPS:C12:1,2019-11-11T22:35:00,27.4980,-83.7220,24.76,11111222 
COMPS,ioos:station:USF.COMPS:C12:1,2019-11-11T23:35:00,27.4980,-83.7220,25.01,11111222 
COMPS,ioos:station:USF.COMPS:C12:1,2019-11-12T00:35:00,27.4980,-83.7220,25.32,11111222 
COMPS,ioos:station:USF.COMPS:C12:1,2019-11-12T01:35:00,27.4980,-83.7220,25.44,11111222 
COMPS,ioos:station:USF.COMPS:C12:1,2019-11-12T02:35:00,27.4980,-83.7220,25.32,11111222 
COMPS,ioos:station:USF.COMPS:C12:1,2019-11-12T03:35:00,27.4980,-83.7220,25.44,11111222 
COMPS,ioos:station:USF.COMPS:C12:1,2019-11-12T04:35:00,27.4980,-83.7220,25.43,11111222 
COMPS,ioos:station:USF.COMPS:C12:1,2019-11-12T05:35:00,27.4980,-83.7220,25.28,11111222 
COMPS,ioos:station:USF.COMPS:C12:1,2019-11-12T06:35:00,27.4980,-83.7220,25.08,11111222 
COMPS,ioos:station:USF.COMPS:C12:1,2019-11-12T07:35:00,27.4980,-83.7220,24.71,11111222 
COMPS,ioos:station:USF.COMPS:C12:1,2019-11-12T08:35:00,27.4980,-83.7220,24.84,11111222 
COMPS,ioos:station:USF.COMPS:C12:1,2019-11-12T09:35:00,27.4980,-83.7220,24.68,11111222 
COMPS,ioos:station:USF.COMPS:C12:1,2019-11-12T10:35:00,27.4980,-83.7220,24.77,11111222 
COMPS,ioos:station:USF.COMPS:C12:1,2019-11-12T11:35:00,27.4980,-83.7220,24.57,11111222 
COMPS,ioos:station:USF.COMPS:C12:1,2019-11-12T12:35:00,27.4980,-83.7220,24.75,11111222 
COMPS,ioos:station:USF.COMPS:C12:1,2019-11-12T13:35:00,27.4980,-83.7220,25.09,11111222 
COMPS,ioos:station:USF.COMPS:C12:1,2019-11-12T14:35:00,27.4980,-83.7220,25.35,11111222 
COMPS,ioos:station:USF.COMPS:C12:1,2019-11-12T15:35:00,27.4980,-83.7220,25.48,11111222 
COMPS,ioos:station:USF.COMPS:C12:1,2019-11-12T16:35:00,27.4980,-83.7220,25.59,11111222 
COMPS,ioos:station:USF.COMPS:C12:1,2019-11-12T17:35:00,27.4980,-83.7220,25.49,11111222 
COMPS,ioos:station:USF.COMPS:C12:1,2019-11-12T18:35:00,27.4980,-83.7220,25.68,11111222 
COMPS,ioos:station:USF.COMPS:C12:1,2019-11-12T19:35:00,27.4980,-83.7220,26.05,11111222 